Theta_e
314 314 313 313 312 312 312 311 311 309 308 312 309 314 317 315 314 325 327 330 322 315 306 311 304 310 312 311 311 312 311 311 310 309 310 308 309 310 310 308 306 307 308 306 306 306 303 304 303 303 305 305 307 309 310 308 307 311 307 306 309 310 304 299 300 302 304 305 307 307 307 308 306 305 307 306 302 303 300 299 300 296 298 295 294 290 295
314 314 313 313 313 312 312 311 311 309 308 310 310 314 310 311 315 320 329 331 324 311 297 301 305 311 312 314 312 311 312 313 309 309 309 312 309 311 307 308 311 307 309 308 305 308 297 304 304 303 306 305 310 311 311 309 309 311 307 305 312 299 302 302 296 295 298 301 304 304 306 307 304 303 305 305 305 304 305 304 304 295 297 297 293 288 293
314 314 314 313 312 312 312 311 311 309 307 310 311 310 312 313 319 319 322 325 323 309 308 307 305 309 311 311 309 310 311 312 312 313 309 311 311 311 309 310 309 308 310 307 308 309 308 303 307 306 306 307 311 311 313 314 311 312 315 311 312 303 302 299 293 289 287 287 289 292 296 301 303 304 304 303 302 304 302 295 298 291 298 298 294 292 300
314 314 314 313 312 312 311 311 311 309 308 307 312 313 314 311 300 315 316 319 317 315 318 316 310 309 311 303 311 313 309 310 312 312 310 312 312 313 310 310 311 308 308 306 306 305 309 306 304 305 305 307 308 309 312 315 311 311 312 311 313 302 306 304 301 298 296 298 299 303 306 303 299 300 302 301 303 304 304 301 296 293 297 296 299 299 299
313 314 313 313 312 312 311 311 311 308 307 307 310 312 316 314 309 306 304 315 313 311 312 312 312 308 314 301 310 308 310 309 310 313 310 311 313 311 312 308 308 308 309 306 306 307 306 308 306 306 306 307 308 310 309 312 315 317 313 313 314 306 301 304 305 303 303 304 302 303 305 301 301 300 300 302 302 303 303 296 295 302 296 291 299 303 299
313 313 313 313 312 312 312 312 312 308 307 306 312 311 314 304 314 315 320 309 302 303 304 312 312 312 314 310 313 309 309 309 305 309 312 312 314 310 309 312 311 309 308 308 302 306 306 306 303 307 307 306 308 307 309 308 309 315 311 313 312 305 296 303 305 302 303 304 302 304 303 302 302 301 301 301 302 303 302 301 302 303 296 293 300 303 300
313 313 313 313 313 312 312 311 311 308 306 308 312 309 314 315 317 318 320 308 311 312 314 312 313 312 313 311 312 309 308 308 311 310 309 310 310 311 298 309 310 311 310 309 306 307 301 299 307 307 306 307 307 306 306 309 311 310 310 310 312 308 301 304 305 302 303 302 302 303 302 302 301 301 301 301 302 303 303 302 303 303 301 302 303 302 303
313 313 313 313 313 312 312 312 310 307 304 310 310 311 310 309 313 312 320 319 315 315 315 314 310 309 311 303 310 310 309 308 308 310 311 302 309 311 308 310 311 311 309 308 306 310 310 308 305 311 310 307 309 307 309 306 309 309 308 310 311 309 297 306 304 301 300 302 302 302 302 301 300 300 301 301 302 302 303 304 304 304 303 303 303 302 301
312 313 313 313 313 313 312 312 311 307 307 310 311 314 315 318 321 321 315 310 313 314 314 310 308 307 309 308 311 310 309 309 311 309 312 313 309 309 309 313 311 311 311 311 309 311 310 311 312 312 311 304 310 307 307 309 307 308 307 308 308 306 300 307 303 294 297 300 300 300 302 301 301 301 302 301 301 301 303 300 305 303 300 302 302 300 300
312 312 312 313 313 313 312 313 310 308 307 309 311 313 320 319 322 322 318 309 313 311 314 313 309 302 310 311 312 309 311 314 312 301 311 311 313 317 316 314 311 311 310 308 308 311 311 310 310 310 310 311 309 310 309 308 307 306 305 307 303 305 302 296 297 293 293 301 301 301 301 299 297 299 302 303 303 303 304 305 306 305 306 300 295 299 306
312 312 312 312 313 313 313 313 310 307 313 309 310 314 317 316 316 319 318 308 312 312 310 308 306 311 313 314 313 314 313 313 312 305 302 314 313 318 319 315 310 308 309 311 312 313 312 311 310 311 309 308 307 309 308 307 307 307 307 305 303 304 303 297 302 292 294 300 301 301 298 289 291 303 307 306 303 304 302 302 305 306 307 304 306 306 309
311 312 312 312 312 312 312 312 311 308 311 314 312 309 314 318 318 318 314 305 306 313 310 308 308 314 312 313 314 312 311 311 311 314 311 314 313 316 318 316 312 301 312 314 312 311 311 310 309 309 308 307 307 309 308 308 308 309 307 307 304 303 302 298 301 294 293 299 300 292 287 289 303 307 308 308 307 306 304 305 306 306 307 307 306 306 307
311 311 311 312 312 312 312 313 311 309 309 316 312 307 316 317 314 315 316 312 305 310 308 310 313 314 316 316 314 314 312 314 315 319 316 314 312 314 315 312 312 309 314 310 310 309 305 303 303 303 303 305 305 306 305 306 307 310 311 308 307 300 298 297 296 298 297 294 293 285 287 301 306 306 307 308 308 307 306 303 305 306 307 306 305 306 307
311 311 311 311 312 312 312 312 312 310 308 312 312 310 311 312 314 315 315 307 307 313 315 312 310 311 313 315 314 316 315 314 316 317 314 315 312 310 312 312 313 315 313 313 310 307 302 302 296 299 299 301 302 301 302 305 306 308 309 308 307 308 304 300 296 300 291 292 293 294 300 300 301 302 304 305 303 304 301 293 301 306 307 307 306 307 308
311 311 311 311 311 311 312 312 312 310 309 309 315 312 309 311 315 314 317 316 306 310 314 304 309 312 313 314 314 311 311 312 311 310 314 317 313 311 312 312 315 314 313 309 305 305 301 299 293 293 296 295 289 291 300 298 303 308 308 308 308 309 303 303 296 293 298 293 291 292 291 288 294 304 308 310 310 309 309 304 299 308 309 310 309 309 309
311 311 311 311 311 311 311 311 311 310 309 308 314 311 311 313 314 316 315 314 311 303 309 314 313 315 313 314 314 312 308 306 309 309 309 310 309 310 311 313 314 314 311 308 306 301 298 293 292 292 290 293 297 295 293 299 299 303 309 308 306 307 307 305 298 295 294 292 290 289 287 291 302 304 307 309 310 310 310 304 296 305 309 310 309 307 307
311 311 311 311 311 311 311 311 311 310 309 308 313 312 310 316 310 314 314 314 313 305 312 310 314 317 314 312 314 313 313 307 310 304 302 306 307 308 308 311 313 313 309 306 304 299 294 294 298 298 298 298 293 291 297 297 296 298 303 306 304 304 303 300 296 293 294 293 291 289 293 292 301 305 306 307 310 310 308 291 290 304 309 309 308 306 306
311 311 311 311 311 311 311 311 311 310 309 307 312 311 310 318 316 316 314 313 311 311 314 312 312 311 312 313 311 314 316 314 313 311 309 308 307 306 306 308 306 308 312 302 303 297 294 293 292 292 292 299 299 298 289 296 292 293 296 298 299 297 296 297 294 295 295 291 293 295 294 303 305 305 306 308 311 307 293 288 296 308 308 307 308 306 306
311 310 310 311 311 311 311 311 311 310 309 307 312 311 310 313 316 318 317 313 311 305 310 310 311 311 314 312 316 315 315 314 312 305 304 304 306 309 309 309 311 301 306 300 303 295 294 295 302 299 294 295 299 292 299 292 292 298 297 295 295 296 296 295 296 294 294 296 292 293 297 302 304 307 307 309 304 293 290 302 310 309 307 307 307 306 306
310 310 310 310 310 311 311 311 311 310 308 307 310 310 314 316 317 318 315 311 314 311 314 310 310 310 316 313 311 310 311 312 313 309 305 301 310 309 306 300 306 309 305 305 295 301 296 292 296 301 296 296 299 302 296 298 301 298 298 299 295 296 291 292 293 296 296 293 291 291 287 295 306 306 305 306 296 299 305 307 307 309 307 307 306 306 307
310 310 310 310 311 311 311 311 311 310 309 307 308 310 309 316 316 319 321 317 313 307 309 310 310 309 310 312 311 309 312 310 313 311 310 311 312 308 296 295 303 304 299 299 293 294 297 296 300 298 303 299 300 299 293 294 297 303 300 299 298 303 292 293 295 298 291 291 288 289 296 302 307 307 297 302 304 307 309 309 304 306 307 307 307 307 308
310 310 310 310 311 311 311 311 311 310 308 308 307 311 307 314 315 319 321 319 312 307 311 313 310 309 310 310 309 310 310 311 313 315 315 305 314 312 311 310 307 306 309 309 303 300 303 303 304 296 295 298 302 296 300 293 291 300 302 301 292 303 299 301 295 302 295 294 297 301 303 303 306 306 305 306 307 309 310 308 306 306 306 309 306 306 307
310 310 310 310 311 311 311 311 311 309 308 307 308 310 307 311 312 317 319 312 315 315 316 311 309 309 308 308 310 311 312 311 312 317 321 311 304 310 309 310 309 313 312 315 304 302 302 302 296 302 299 300 296 297 298 299 294 298 294 301 301 303 305 307 304 299 304 305 304 304 304 304 304 307 308 307 307 309 310 308 305 306 307 307 306 307 307
309 309 310 310 311 311 311 311 310 308 308 307 308 310 309 311 313 313 312 313 311 305 308 309 304 302 305 305 308 311 311 311 312 313 316 319 306 302 309 311 313 312 313 317 315 307 307 308 304 305 296 303 302 295 292 291 295 300 299 297 300 303 304 303 298 302 298 291 302 302 302 304 305 304 307 308 308 308 308 307 306 307 307 307 309 308 308
309 309 309 310 310 311 311 311 310 308 307 307 308 309 312 311 312 312 310 300 303 302 297 300 302 307 307 309 310 309 310 311 313 314 315 315 320 310 308 314 316 314 312 313 314 309 302 301 300 300 294 304 305 295 302 295 296 302 294 298 299 298 305 301 302 300 297 295 301 303 304 305 306 305 304 305 306 307 308 308 309 308 309 308 308 309 307
309 309 309 309 310 310 310 310 310 308 307 307 308 308 306 310 313 315 311 311 310 307 297 298 304 308 309 308 306 306 310 311 311 313 312 314 314 324 316 312 314 317 314 314 316 302 301 301 299 299 298 297 306 299 296 303 302 304 299 299 305 303 302 294 301 298 300 302 302 301 303 303 304 305 307 307 306 306 307 307 307 307 307 307 307 308 307
309 309 309 309 309 310 310 310 309 307 307 307 308 310 309 310 314 311 309 311 304 298 300 299 305 304 307 306 307 310 310 311 313 313 313 312 314 320 318 316 311 311 311 309 311 304 302 301 299 300 304 302 304 304 303 300 300 298 296 302 304 301 297 301 299 296 293 295 298 302 294 294 301 304 305 306 307 307 306 306 305 306 306 306 306 306 306
308 309 309 309 309 310 310 310 309 307 307 307 308 309 311 311 312 312 315 314 309 302 301 301 302 304 307 304 307 310 311 312 313 314 312 313 315 317 317 314 313 311 309 304 298 298 298 297 301 303 305 305 301 297 305 304 303 300 300 301 302 299 302 299 295 294 294 301 302 304 305 304 304 304 306 307 307 306 305 304 304 304 305 304 304 303 303
308 309 309 309 309 309 310 309 308 307 307 307 309 307 306 309 312 311 314 316 313 308 301 303 305 304 299 303 308 309 311 313 313 313 313 313 314 316 315 314 314 313 312 306 301 300 300 301 303 299 300 306 304 298 299 294 293 292 298 304 304 307 306 303 303 304 303 304 305 305 304 302 304 305 306 306 307 305 304 304 304 303 303 303 303 302 301
308 309 309 309 309 309 309 309 307 306 307 309 307 303 299 302 310 310 312 314 312 310 300 297 295 296 305 306 305 307 308 311 311 312 311 311 310 311 311 311 311 312 309 302 301 297 299 299 302 304 304 306 304 297 295 297 295 297 304 304 304 304 305 306 305 303 301 305 305 306 306 305 306 306 305 305 305 304 303 302 303 302 302 303 302 302 302
308 308 309 309 309 309 309 307 306 306 306 305 304 296 294 294 305 312 311 314 315 310 301 300 298 301 303 305 307 305 306 307 308 308 308 308 308 308 309 310 310 309 301 301 301 300 299 298 299 302 304 303 301 297 297 297 293 298 301 302 302 302 303 304 307 307 305 305 306 307 306 305 305 304 303 304 304 304 303 303 303 303 303 302 301 302 302
308 308 308 309 309 308 308 306 306 306 306 304 302 302 301 301 309 313 313 312 314 308 299 296 294 296 296 299 304 305 305 305 306 307 307 308 306 308 308 307 306 307 302 300 299 299 299 298 302 302 301 302 301 299 300 297 292 296 301 302 303 303 304 304 305 305 306 306 305 304 303 303 304 303 300 303 303 304 303 302 302 303 302 303 304 304 303
308 308 308 308 308 308 307 306 306 306 306 307 304 303 302 302 305 309 309 314 311 306 308 299 295 295 293 300 304 304 305 306 305 306 302 307 305 307 304 308 306 304 306 301 297 296 301 301 303 300 302 305 299 294 297 295 297 303 302 302 303 303 304 305 305 306 305 306 305 302 301 302 303 303 304 303 303 303 303 301 301 302 302 301 300 301 301
308 308 308 308 308 307 306 306 305 305 306 307 302 307 307 305 307 307 314 314 309 309 300 297 292 293 294 301 299 303 305 301 301 304 296 304 306 307 300 304 305 297 300 300 298 298 300 302 297 299 301 298 302 295 291 297 302 302 302 302 304 304 304 304 304 304 305 306 306 306 306 305 304 304 303 302 302 303 303 302 300 299 299 300 300 300 300
308 307 307 307 307 306 306 305 304 303 300 302 307 311 309 305 307 306 309 310 301 296 295 295 298 294 292 293 296 299 304 303 299 303 298 300 307 304 303 297 299 296 295 305 298 298 296 297 303 295 293 300 294 290 293 298 300 302 302 302 303 303 303 301 302 304 304 305 305 304 303 303 302 301 300 301 300 300 300 299 300 299 298 299 299 300 300
307 307 306 306 306 305 305 304 304 302 300 300 304 307 305 306 307 309 311 308 305 300 295 295 297 295 297 291 292 298 304 302 304 304 303 303 301 304 304 299 293 298 303 302 295 300 295 303 297 292 300 292 290 294 297 300 300 301 302 302 303 302 303 303 304 304 303 303 302 302 301 302 301 300 300 300 299 299 299 299 299 300 298 298 299 299 300
306 306 306 306 304 301 297 298 304 304 302 308 306 306 306 307 307 307 306 305 308 307 301 299 294 297 300 298 300 301 301 292 302 298 299 297 295 299 299 296 294 296 297 295 295 295 300 304 298 294 292 291 294 300 301 301 301 301 302 303 303 304 304 304 304 303 302 301 300 301 300 300 299 299 299 299 299 299 299 298 298 298 297 298 298 298 299
306 306 304 300 298 291 292 296 302 307 305 304 304 303 301 302 295 295 297 297 303 304 299 301 297 302 305 301 294 302 301 297 302 294 296 299 295 293 299 297 295 295 291 293 296 304 297 296 293 293 293 300 303 302 303 303 303 304 304 304 304 304 304 304 303 301 300 298 298 299 299 298 298 298 298 298 298 298 299 299 299 300 299 299 299 300 299
304 303 302 301 297 293 294 300 307 305 305 304 306 295 292 293 294 291 291 295 295 294 296 298 296 302 300 300 299 304 302 298 295 298 292 300 294 291 295 292 294 296 293 292 295 302 291 291 293 293 293 299 298 301 304 305 305 304 305 305 306 305 304 303 303 302 300 299 300 300 300 298 298 298 298 298 299 299 299 299 299 300 300 300 300 299 300
301 297 294 295 295 298 305 306 306 304 302 294 294 293 289 291 291 288 295 290 291 296 299 293 301 302 303 300 297 295 303 300 294 294 295 296 302 294 294 296 295 293 288 290 293 300 293 288 291 291 291 297 298 302 302 303 303 305 305 305 306 305 304 303 303 303 303 303 302 301 302 301 300 299 298 298 298 298 299 300 300 300 300 300 298 299 299
300 300 299 294 300 302 303 303 303 302 293 290 289 289 289 287 291 292 291 290 291 293 301 300 300 298 301 304 302 297 301 306 307 305 302 293 301 300 293 290 296 291 289 289 294 295 294 292 291 290 292 299 301 301 302 302 303 305 306 305 305 304 304 304 304 304 302 301 301 300 300 300 300 299 299 299 299 299 299 299 299 300 300 300 299 299 300
303 304 304 306 304 303 301 297 291 288 289 290 287 285 288 290 291 289 292 288 290 294 296 299 295 297 297 302 302 302 298 305 305 299 296 291 295 294 292 292 293 289 287 293 297 294 292 288 289 290 297 300 303 302 302 302 303 304 304 305 305 304 304 303 302 302 302 301 301 300 300 301 300 299 300 300 300 300 300 300 300 300 300 300 300 299 299
303 303 302 298 296 292 290 287 289 289 284 284 284 283 286 284 287 287 288 293 301 297 297 304 303 304 304 305 300 304 299 304 298 296 295 291 294 294 291 289 288 285 290 297 294 290 288 288 288 293 300 301 302 301 302 303 303 303 304 305 305 304 304 303 302 301 302 301 301 301 300 300 300 300 300 301 300 300 300 299 300 300 300 300 299 299 298
302 300 294 290 288 288 290 281 289 286 284 286 284 281 283 284 287 289 288 290 295 296 299 296 297 297 292 301 298 295 298 298 297 295 294 295 292 289 288 286 288 295 297 291 290 287 288 291 294 298 301 302 301 302 302 302 303 303 303 303 304 303 303 302 302 301 300 301 301 300 300 300 300 301 300 301 300 300 300 300 300 299 299 299 298 298 298
291 287 287 286 285 288 287 281 288 285 281 283 287 287 287 284 288 289 290 296 297 296 298 299 298 298 296 300 301 298 297 293 298 293 287 292 289 291 288 288 291 291 289 286 288 289 289 289 297 299 300 300 301 302 303 303 303 302 302 302 302 302 302 301 300 300 300 300 300 299 299 300 300 300 300 301 301 301 300 300 299 299 299 298 298 297 297
288 287 287 285 282 285 286 284 284 282 287 290 288 292 292 293 294 293 298 298 297 298 296 296 297 297 295 298 293 293 296 295 292 292 293 292 288 286 291 294 292 288 286 288 285 285 287 292 296 297 300 301 302 302 302 302 302 303 301 300 300 301 301 300 300 299 299 299 299 299 299 299 299 299 300 301 301 300 301 301 300 299 299 297 297 296 296
288 288 287 288 285 286 288 284 285 288 292 293 294 295 296 296 297 298 298 300 298 298 299 299 299 297 294 294 293 294 296 296 290 291 293 288 287 288 292 288 284 286 283 283 285 287 291 296 298 299 301 302 302 302 301 301 301 301 300 301 300 300 300 300 300 299 299 300 299 299 299 299 299 299 300 300 300 301 300 300 300 299 298 297 296 296 296
286 288 288 283 282 286 283 287 295 295 296 296 296 297 298 299 297 295 298 298 298 299 297 297 295 296 295 299 300 292 293 293 289 289 292 290 290 287 285 285 285 287 288 287 288 293 295 298 299 300 302 302 302 301 300 300 301 301 301 300 300 300 300 299 299 299 299 299 299 299 299 299 299 299 299 299 300 300 300 300 300 299 298 297 296 296 295
290 287 285 286 288 288 289 294 293 291 294 296 296 297 296 295 295 295 297 299 297 297 299 297 295 296 291 294 293 291 288 292 287 286 289 288 285 282 283 281 283 283 288 292 293 296 298 300 301 302 302 301 301 301 301 301 300 300 300 300 300 300 300 299 299 300 299 299 299 299 299 299 299 299 299 299 298 299 300 300 299 298 298 296 295 295 294
287 287 288 288 288 290 294 294 293 291 293 294 294 294 296 296 296 296 299 297 299 299 301 298 300 293 292 292 288 290 289 292 290 289 287 285 286 287 286 283 286 286 289 293 295 298 300 301 302 301 301 301 301 301 300 301 299 300 300 300 300 300 299 299 299 300 299 299 299 299 299 299 298 298 299 298 298 299 299 299 299 297 297 296 296 295 293
288 287 288 297 291 290 292 287 289 289 291 292 293 293 295 295 296 296 301 300 299 297 294 292 293 291 289 288 287 284 287 293 289 287 287 287 290 288 286 285 289 293 296 298 299 301 301 301 301 300 301 300 300 301 301 301 301 300 300 300 299 299 299 300 300 299 299 299 300 295 298 298 299 299 300 300 299 298 298 297 297 297 296 296 296 295 294
287 285 287 290 293 294 295 295 296 295 294 294 293 295 296 295 297 298 301 299 297 293 291 293 292 290 286 285 288 291 291 289 287 288 287 289 291 288 288 291 294 296 298 297 299 299 300 300 301 301 301 300 300 301 301 301 300 300 299 299 299 299 299 299 299 299 299 299 300 299 299 300 301 300 300 299 299 297 295 295 296 297 296 296 296 296 295
Wind_Speed
6 5 4 3 5 6 6 10 11 11 16 8 7 6 3 2 3 3 1 2 3 6 3 2 2 3 3 1 2 1 2 0 3 4 2 3 1 3 1 2 3 3 2 6 6 4 4 2 2 6 7 8 8 5 3 2 2 4 4 3 2 3 3 4 3 5 6 5 4 2 1 4 4 6 6 3 4 4 4 4 3 4 2 2 2 1 4
6 6 4 3 3 5 6 8 9 7 12 7 8 5 2 3 3 2 4 2 3 5 3 5 5 4 4 1 4 2 3 2 5 3 3 2 3 2 3 4 4 5 1 5 7 2 2 1 5 5 4 5 4 5 2 3 2 4 4 4 3 3 1 4 4 3 5 6 4 4 1 3 3 4 5 4 2 3 3 3 1 4 2 4 4 1 3
7 6 4 3 3 3 5 7 7 5 6 7 5 4 4 3 2 3 1 2 4 5 1 2 5 5 6 5 7 6 3 4 4 3 4 2 3 3 3 2 4 5 3 5 5 3 1 6 2 3 4 6 4 6 5 3 5 6 5 5 1 2 1 3 3 3 4 5 5 3 5 4 4 4 3 4 4 3 3 3 2 3 5 2 3 1 5
8 6 5 4 3 4 4 7 7 4 7 7 5 4 4 3 2 4 4 3 3 1 1 3 1 5 6 4 4 2 6 3 1 1 6 4 6 5 6 5 5 8 8 7 5 5 2 3 6 7 6 7 4 4 6 6 6 6 5 2 2 1 1 2 5 6 5 7 7 4 5 1 2 4 2 3 2 2 4 4 4 1 4 4 4 4 2
8 7 6 4 3 3 5 5 5 5 4 4 5 4 4 2 3 2 3 3 4 3 3 2 3 3 1 4 5 7 6 6 6 3 1 2 3 4 2 5 7 5 6 6 6 4 6 5 10 5 8 5 6 4 3 6 6 4 1 1 2 3 3 5 5 8 7 8 9 6 4 4 3 1 4 2 2 1 3 3 3 5 4 1 4 4 3
8 8 6 5 4 3 5 5 3 5 3 4 4 4 3 4 2 2 4 3 2 4 4 4 3 2 3 2 1 7 9 8 5 3 4 4 1 2 3 2 3 7 6 7 4 5 6 6 5 6 4 8 7 7 5 3 3 6 2 1 3 1 3 2 2 7 6 5 6 4 4 4 3 4 3 4 2 1 3 0 1 3 3 2 3 2 3
9 8 7 6 5 4 5 6 2 5 1 4 4 4 1 3 2 1 2 4 2 2 5 2 3 4 3 3 4 8 9 8 4 2 6 5 5 2 3 6 4 4 4 3 5 8 6 3 4 5 6 4 6 4 5 4 3 3 4 3 3 2 4 4 2 6 5 5 4 3 3 3 4 4 3 2 3 3 2 3 2 1 1 3 3 3 6
9 9 9 7 6 5 5 6 4 4 2 4 5 4 4 1 3 3 3 4 1 1 2 3 5 6 2 2 6 7 9 8 6 4 4 5 5 2 6 7 5 4 1 4 6 3 2 7 8 4 5 5 4 2 3 3 3 1 3 1 3 4 3 2 4 5 5 4 4 3 3 3 5 2 2 3 3 4 4 4 3 1 2 2 2 3 3
10 9 9 8 7 6 6 6 5 4 4 4 3 3 2 4 3 3 4 7 3 2 3 5 7 5 5 5 5 5 9 9 7 5 3 0 4 6 8 9 7 3 5 7 9 5 5 5 8 8 2 2 3 2 4 2 2 2 2 2 1 4 3 4 3 3 5 4 4 5 4 3 5 6 5 3 3 4 3 3 4 2 2 1 2 0 4
10 10 9 9 8 8 8 5 7 5 4 3 3 3 3 4 1 4 3 4 4 5 3 4 4 5 7 5 8 7 9 8 9 4 1 1 3 3 9 8 7 8 9 9 8 7 9 11 9 7 8 8 6 6 5 1 2 1 2 1 3 0 4 3 3 3 3 6 3 4 5 5 4 6 5 5 7 7 7 6 6 5 4 3 2 5 4
11 11 11 10 9 9 8 5 8 8 3 3 3 2 3 4 3 3 3 4 4 6 5 5 9 1 4 4 7 1 7 9 8 5 2 2 3 1 5 9 8 7 8 8 7 9 11 10 9 7 8 9 8 6 6 6 3 2 1 3 1 2 3 1 1 2 3 6 4 5 6 4 3 5 3 2 2 2 4 6 8 7 6 6 5 5 4
12 12 11 11 10 9 8 6 8 9 5 3 3 4 3 4 6 4 4 4 3 4 6 6 7 4 6 8 6 8 10 11 7 1 7 5 5 3 4 5 8 4 5 7 10 11 12 11 11 10 10 11 11 9 9 8 6 2 1 2 3 4 3 1 1 2 2 5 5 3 3 2 7 4 4 1 3 8 10 9 7 6 5 5 5 5 5
13 12 12 11 10 9 8 7 9 9 6 3 3 4 2 4 5 4 4 6 4 6 7 6 2 0 2 7 7 7 7 5 4 3 8 11 7 5 2 2 4 9 11 12 13 11 9 11 10 10 10 8 9 10 10 10 8 6 2 1 2 2 2 1 1 0 1 2 2 3 2 8 7 5 5 4 4 7 8 8 6 6 5 4 5 5 4
13 13 12 12 11 10 9 8 8 9 8 5 5 4 3 4 4 4 3 2 4 5 4 2 3 6 5 8 8 7 7 6 6 7 9 5 10 8 4 4 8 12 11 11 9 10 8 6 5 6 6 5 4 3 6 7 8 7 6 2 1 3 1 2 1 0 2 1 0 4 8 7 6 6 3 1 2 2 3 0 4 4 4 5 5 5 5
14 13 13 12 12 11 10 9 9 10 10 8 5 4 4 3 4 4 3 4 3 2 3 5 5 9 8 8 9 9 8 8 8 5 7 6 6 4 5 7 7 9 10 8 6 4 4 5 3 4 4 4 2 3 4 3 4 6 4 2 2 1 3 1 2 2 4 3 2 6 4 5 5 3 5 0 1 4 3 2 6 2 3 4 5 5 7
14 14 14 13 12 11 10 10 10 10 10 9 5 5 4 3 3 4 5 4 3 4 4 1 5 4 9 8 12 12 9 8 7 8 8 6 8 9 7 6 5 6 5 2 3 3 3 3 4 3 2 4 3 3 3 4 4 5 3 3 3 2 1 2 3 2 2 3 3 2 3 3 3 5 1 3 1 4 3 6 3 3 4 5 5 7 7
14 14 14 14 13 12 11 10 11 11 11 11 6 4 4 3 4 5 4 5 5 3 4 3 2 4 4 6 4 8 10 7 11 7 5 8 10 10 9 7 4 3 5 5 5 4 3 3 4 2 3 2 4 2 4 2 3 4 4 4 2 2 1 1 2 1 2 2 3 1 2 2 3 4 3 3 2 4 4 7 2 3 5 5 6 7 8
15 14 14 14 13 12 12 11 11 11 12 12 6 4 3 3 5 5 5 6 5 6 0 2 3 5 7 1 9 5 4 7 6 5 7 10 10 11 10 8 7 2 5 3 4 3 3 3 4 3 3 3 2 2 1 3 4 1 1 2 1 1 0 1 2 1 4 1 1 1 3 5 4 3 3 3 1 2 6 3 3 2 5 5 5 7 7
15 15 15 15 14 13 12 12 12 12 12 11 6 4 6 6 5 5 6 5 4 2 4 2 3 6 6 5 4 2 2 6 9 5 6 8 7 10 12 4 1 4 6 3 5 3 4 2 1 1 3 3 2 1 3 3 3 2 1 3 2 2 1 0 1 3 2 1 2 2 6 4 4 0 2 2 3 4 0 5 1 2 5 5 6 6 8
15 15 16 15 14 14 13 12 12 13 12 13 8 5 1 3 4 7 6 5 4 6 3 2 1 4 1 4 2 5 5 3 7 8 10 7 7 10 8 5 5 2 6 5 3 1 2 4 4 1 3 6 3 2 3 2 1 1 1 1 2 2 1 1 1 0 1 2 2 2 3 3 4 1 3 0 4 5 4 6 6 3 5 5 7 7 7
16 16 16 16 15 14 13 12 13 13 13 13 10 4 5 4 3 6 7 6 5 3 2 4 3 4 4 5 6 8 6 4 5 9 10 7 11 9 7 6 9 7 5 4 5 3 1 4 5 3 2 1 5 3 2 4 5 2 2 1 1 3 2 0 1 0 2 2 3 0 4 5 6 4 2 6 7 5 3 0 6 5 4 4 5 7 7
16 16 16 16 15 14 13 13 13 13 14 13 10 5 5 2 2 2 5 6 6 4 4 6 5 6 4 3 3 5 6 8 8 7 4 7 3 2 0 4 11 6 4 3 4 3 2 3 2 2 4 3 3 2 2 3 3 5 2 2 2 3 2 4 2 4 1 3 4 6 5 6 6 8 9 7 6 5 5 6 6 5 6 4 5 6 7
16 17 17 17 16 15 14 14 14 13 14 14 10 6 5 2 2 2 5 6 6 6 6 5 4 5 4 4 2 3 4 2 6 5 5 9 4 2 1 5 5 3 2 2 3 4 6 6 4 4 4 4 4 4 3 4 1 5 3 3 4 2 2 0 2 5 7 7 7 7 6 6 8 7 7 8 8 6 4 5 7 6 6 5 6 6 6
16 16 17 17 16 15 15 14 14 14 15 16 12 6 5 3 1 3 5 5 4 3 3 4 3 2 2 1 0 2 2 4 4 6 5 4 6 2 0 2 4 3 1 2 4 1 5 2 3 1 4 4 5 4 3 3 2 3 4 3 5 4 4 4 3 8 5 3 5 6 8 7 8 9 8 8 7 7 6 7 7 7 6 6 6 6 6
15 16 17 17 17 16 15 15 14 14 15 16 11 4 1 3 3 6 5 3 3 3 2 3 3 1 3 3 3 2 3 5 7 5 5 5 4 7 6 6 2 1 7 5 3 5 2 3 4 4 3 3 3 2 2 2 3 4 3 4 5 6 5 6 4 8 5 4 9 8 7 6 5 6 7 8 8 8 7 6 6 6 6 6 6 5 7
15 16 17 18 17 16 15 15 15 15 15 16 12 7 6 5 3 4 5 5 4 3 3 3 4 3 2 2 1 7 7 6 5 5 6 5 4 4 11 7 5 4 6 3 2 4 3 2 2 1 4 3 3 1 2 3 4 2 4 3 3 7 9 3 7 5 7 8 9 10 9 8 7 7 6 6 6 7 7 7 7 7 7 7 7 7 7
15 17 18 18 17 16 15 15 14 15 15 16 10 7 5 4 3 6 6 4 4 3 3 3 4 4 3 4 5 5 5 4 3 3 5 5 3 7 9 11 10 6 7 5 3 2 1 1 3 4 1 4 3 1 2 4 3 4 4 4 5 7 6 6 7 5 5 7 10 12 6 6 8 7 7 7 5 5 7 6 7 7 6 5 6 6 7
16 17 18 18 17 16 15 15 14 15 15 14 8 5 4 4 4 5 6 5 5 3 1 3 4 4 0 4 8 6 5 2 1 2 5 4 7 9 10 12 11 9 8 6 3 3 3 5 4 3 3 4 5 3 0 4 1 4 5 6 8 6 6 7 5 4 4 8 13 8 2 9 8 8 6 5 5 6 7 6 6 6 7 7 6 6 5
16 18 18 18 17 17 16 15 14 14 15 10 4 3 4 7 6 6 5 4 5 5 3 2 4 5 2 3 6 5 6 4 4 5 7 7 8 8 9 9 8 7 6 4 3 2 2 3 4 4 4 3 3 4 5 4 4 4 3 8 6 4 4 4 2 8 9 9 9 6 5 6 9 8 7 6 5 6 7 7 7 7 7 6 6 6 6
16 18 19 18 17 16 16 15 15 15 15 8 5 3 3 4 9 9 7 5 6 5 3 3 4 1 2 2 5 5 6 7 10 10 10 9 7 6 6 8 6 4 4 3 4 3 3 3 2 3 2 2 3 4 3 4 5 4 7 7 7 7 5 5 3 4 7 8 8 6 8 10 9 8 7 6 5 5 6 7 6 5 5 5 4 4 5
16 18 19 19 18 17 15 16 17 17 14 8 6 3 3 3 5 9 10 7 6 5 2 3 1 2 2 1 1 5 6 7 9 10 10 8 7 6 5 6 6 2 4 3 2 3 3 3 3 4 3 2 2 4 4 5 4 5 8 9 8 8 7 7 6 7 10 8 9 9 10 10 9 9 8 6 6 6 6 6 5 4 3 2 4 3 3
16 17 17 17 17 16 16 18 19 17 10 10 9 3 2 1 2 3 11 9 5 5 3 3 3 3 2 2 2 1 3 3 3 5 5 3 5 5 7 5 5 5 3 4 3 3 1 2 4 7 6 3 2 3 4 5 4 5 12 10 9 7 7 7 7 7 9 10 12 11 9 9 7 5 7 7 6 5 5 5 4 5 3 0 2 2 2
15 16 18 17 16 17 18 19 19 13 7 4 4 4 4 2 3 7 10 8 6 5 3 3 2 3 2 5 5 3 1 2 4 4 5 4 3 2 4 3 6 6 4 3 2 1 2 3 6 6 3 1 3 2 5 5 4 10 14 11 9 8 8 8 8 8 10 11 10 8 10 9 8 10 10 7 6 5 4 3 3 1 1 2 3 4 5
15 17 17 17 16 18 18 18 15 7 7 1 4 2 3 5 6 6 7 7 3 2 1 2 2 3 3 3 6 5 4 4 5 3 4 2 2 1 4 4 1 2 3 1 2 2 2 3 4 5 5 4 3 2 4 4 8 12 13 12 10 9 9 9 9 10 10 7 3 5 10 10 10 8 8 7 6 4 3 2 2 3 4 4 4 5 6
15 17 16 16 16 16 18 18 9 5 6 3 2 1 5 9 6 7 7 4 7 3 3 2 2 5 4 3 6 6 5 3 6 1 2 2 3 3 4 2 2 1 2 1 2 2 4 3 7 4 5 5 3 3 5 8 12 12 12 12 11 11 11 11 11 10 9 7 9 11 11 12 11 9 7 6 5 3 2 2 3 5 5 5 5 6 7
14 15 17 18 19 15 9 6 4 6 6 6 4 6 10 7 3 2 2 2 2 2 4 3 3 6 7 8 7 4 6 2 3 3 3 4 4 2 1 2 3 2 1 3 3 6 3 5 4 4 6 5 5 6 6 11 14 14 14 14 13 12 12 13 13 11 10 11 12 12 11 10 9 8 7 5 4 3 2 2 3 4 5 5 5 6 5
14 18 23 22 13 5 5 4 3 4 3 5 9 13 11 8 3 1 0 3 4 1 4 4 6 8 9 6 4 5 9 5 5 4 5 4 4 1 2 2 2 2 2 2 3 4 4 2 2 4 5 6 5 5 5 12 14 15 15 14 13 12 11 12 14 14 13 13 13 10 9 9 8 6 5 4 3 1 1 2 3 4 5 5 5 5 5
20 23 13 8 6 3 3 5 5 8 17 19 14 7 1 2 2 3 3 4 2 3 3 4 7 5 2 5 4 8 8 5 6 4 2 1 3 2 0 0 2 3 4 4 3 3 4 4 3 4 5 5 4 4 6 9 11 11 12 13 13 11 12 14 15 14 14 13 11 10 9 8 7 5 4 4 2 1 1 2 2 2 2 3 3 4 4
20 8 5 3 4 4 3 6 13 18 9 2 1 1 2 1 3 3 4 3 3 5 3 6 7 6 9 8 6 3 3 8 6 6 5 5 2 3 2 3 1 2 2 2 3 6 4 4 3 3 5 8 7 8 8 8 9 11 12 13 12 12 13 14 14 14 12 10 10 10 8 7 8 6 4 2 2 1 1 1 1 2 2 2 2 4 4
8 7 5 5 3 4 7 13 19 9 3 3 1 1 3 1 3 3 3 5 4 4 5 8 5 6 8 9 12 9 3 7 9 8 6 5 2 2 3 0 3 3 4 5 4 6 4 6 4 4 6 9 9 11 10 10 10 10 12 13 13 13 14 13 12 9 8 9 10 8 7 6 6 5 3 2 0 1 1 1 0 1 2 2 3 4 5
6 4 5 4 6 7 5 7 4 2 1 1 1 1 2 3 3 1 3 6 6 5 5 7 6 5 2 3 12 9 4 3 2 2 5 4 1 1 3 3 2 3 3 4 3 3 3 3 4 7 6 8 10 12 12 11 11 12 12 12 13 13 14 12 11 10 11 11 10 8 8 7 6 5 3 2 1 0 0 1 1 1 2 2 3 5 4
3 3 6 9 8 8 6 3 2 2 0 1 2 3 3 2 2 1 3 9 10 4 7 7 10 10 9 9 7 6 4 2 1 2 2 3 1 2 3 2 2 3 3 2 6 4 3 4 5 6 7 8 12 13 14 13 13 14 13 13 13 13 13 13 12 11 11 10 9 8 7 7 6 4 3 3 2 1 1 1 0 1 2 2 3 5 6
21 13 10 6 3 2 1 2 1 1 3 3 3 4 2 4 5 8 5 2 2 8 8 7 4 7 6 5 6 4 4 3 2 3 3 3 2 0 2 2 2 4 3 5 4 4 7 7 6 6 7 10 13 14 14 14 14 14 14 13 13 13 13 13 12 12 11 10 10 8 7 7 5 4 3 3 3 3 2 2 1 1 2 3 6 7 7
6 4 6 2 3 0 1 6 1 1 2 3 6 11 9 8 8 7 5 8 8 9 11 13 11 13 8 4 5 4 4 2 0 1 2 2 3 2 2 3 3 4 4 3 3 7 7 5 7 5 9 10 11 14 15 15 15 14 13 14 14 14 13 13 12 12 11 9 8 7 6 5 5 5 4 3 3 2 1 0 1 2 2 4 7 7 7
4 4 3 2 3 2 2 3 1 3 9 10 6 9 10 13 13 13 9 8 9 11 13 11 12 11 10 5 4 2 3 4 1 2 3 3 2 2 3 2 3 2 3 4 3 3 2 6 6 6 10 11 13 15 15 15 15 15 15 15 15 15 14 14 13 11 10 9 9 7 6 5 5 5 4 4 3 2 2 2 0 2 5 5 6 7 6
3 5 4 6 5 3 2 4 5 8 6 6 8 9 11 10 10 13 8 10 11 13 13 11 10 11 10 5 3 4 3 3 5 2 3 3 3 3 1 2 1 4 2 3 6 9 9 8 9 10 11 13 15 15 15 15 15 15 16 16 15 15 14 13 12 11 10 9 8 6 6 5 4 4 4 4 4 3 2 2 1 0 2 3 6 6 6
3 1 1 1 3 3 2 7 9 4 3 8 9 8 9 10 10 8 6 7 10 10 10 8 7 9 10 7 3 2 2 3 3 1 1 3 3 2 0 2 3 3 5 7 8 6 8 7 8 10 13 14 15 15 16 15 15 16 16 14 15 15 14 13 12 11 10 9 8 7 5 5 4 3 3 4 3 2 3 3 1 1 2 4 5 5 6
5 1 1 3 5 5 11 6 5 5 4 7 8 8 7 9 11 10 7 8 10 12 13 11 11 9 6 2 1 6 5 2 3 2 0 2 2 2 2 2 3 3 3 5 9 7 5 6 9 11 13 14 16 16 16 15 16 17 16 15 16 15 14 13 12 11 10 10 8 6 5 5 4 3 4 4 3 3 3 3 1 2 3 4 5 5 6
2 3 5 2 2 3 5 6 7 7 7 8 9 9 9 12 11 10 7 8 11 11 13 12 9 9 5 4 4 5 4 3 3 3 2 2 3 5 5 5 6 7 6 6 5 6 6 7 10 12 14 15 15 15 15 15 16 16 16 16 15 14 13 12 11 11 10 8 7 5 4 4 3 3 3 4 4 4 3 3 3 3 3 4 5 6 6
2 1 1 2 3 4 9 9 8 8 8 9 10 10 10 10 10 8 8 10 11 12 9 6 4 3 4 4 4 5 4 3 3 4 4 5 3 3 4 5 6 5 5 8 7 4 6 8 11 13 14 15 15 15 16 15 15 14 14 14 13 13 12 12 11 11 9 7 6 4 3 3 4 4 4 5 4 3 4 4 3 4 3 4 5 5 5
1 0 2 2 4 7 12 13 13 11 12 12 12 12 11 10 11 11 9 10 12 12 9 11 6 4 5 3 3 4 3 3 4 6 5 5 3 4 6 6 4 6 3 6 8 6 7 9 11 12 14 15 15 15 15 15 15 14 14 13 13 11 11 11 11 9 8 7 6 5 5 5 4 4 4 3 3 4 5 4 3 4 4 5 5 5 5
3 4 5 4 4 6 10 7 8 9 7 9 10 8 8 8 8 9 6 11 13 13 11 6 6 6 4 6 4 3 4 2 3 4 6 4 3 5 4 4 4 7 6 7 7 7 7 8 11 14 14 15 15 15 15 15 14 14 13 12 12 11 11 10 10 9 8 7 6 5 4 4 3 4 4 5 5 5 4 4 2 3 4 5 6 6 6
Wind_Direction
233 237 248 271 300 318 331 331 335 6 357 350 356 305 251 266 1 74 50 23 250 258 193 130 185 220 60 130 150 117 189 282 129 178 150 163 175 131 92 66 142 98 101 144 133 144 93 7 104 121 112 80 42 26 356 295 264 283 111 202 111 247 243 140 103 118 121 114 81 76 337 285 207 85 31 354 17 18 343 358 355 308 106 224 190 253 79
220 224 225 254 285 305 326 320 347 22 35 355 318 285 346 330 314 140 138 176 256 257 192 180 191 139 122 192 109 48 55 8 164 163 91 1 163 125 120 146 7 115 168 154 143 158 147 56 140 126 131 103 27 46 68 279 38 325 49 315 82 247 129 278 139 169 166 169 171 176 123 226 43 48 55 26 62 37 31 320 317 264 73 344 307 353 81
219 215 217 232 257 295 310 318 342 20 52 358 326 324 339 293 216 253 222 206 238 259 342 215 173 151 159 161 156 160 122 46 9 6 89 50 63 170 100 38 131 120 126 98 110 76 0 138 26 97 125 101 99 62 56 33 80 51 40 10 291 275 74 245 231 185 192 203 209 183 175 129 92 64 67 39 11 357 265 248 151 283 116 253 258 63 54
212 211 209 216 240 264 292 300 330 16 49 332 300 297 268 205 216 164 180 187 197 298 325 318 227 159 160 172 138 202 134 127 50 357 85 39 86 64 115 122 132 127 142 124 115 122 127 162 158 169 139 135 99 47 61 58 80 79 66 337 298 69 81 352 340 331 15 51 65 45 354 143 204 72 50 51 6 350 274 300 265 283 116 246 75 1 357
204 205 205 208 222 253 275 303 334 65 64 33 324 271 279 344 258 156 192 161 243 220 199 197 235 176 209 179 164 175 151 130 128 357 157 98 98 102 39 146 152 156 151 125 113 113 129 126 149 155 143 98 104 86 81 98 84 156 160 4 262 178 130 53 39 56 58 60 71 61 10 86 80 22 64 67 34 333 284 274 4 46 252 130 71 53 328
201 200 203 202 212 234 273 290 348 100 72 287 281 279 202 235 127 300 18 300 170 194 196 212 143 62 251 125 199 171 154 165 157 127 65 136 185 152 144 181 168 162 166 147 124 139 123 142 137 136 121 138 144 147 137 107 116 217 118 227 282 241 111 92 84 89 85 66 87 88 84 59 62 78 47 44 21 206 241 196 13 278 303 23 79 49 17
200 198 199 203 200 218 253 282 52 110 60 297 308 280 134 304 1 315 45 236 20 346 38 180 196 156 230 136 199 174 179 160 117 113 149 179 158 223 148 156 146 141 143 181 143 153 137 135 147 161 162 143 167 151 148 118 141 140 97 67 4 282 108 97 69 116 106 108 104 82 75 107 128 83 66 52 54 64 71 95 61 313 12 28 42 53 63
201 193 199 201 202 205 243 270 118 123 192 259 278 262 299 166 281 164 177 282 281 122 206 188 193 185 187 199 182 191 184 160 144 136 174 167 159 171 179 142 135 137 161 170 159 127 11 161 165 164 151 144 229 123 6 97 127 73 82 347 99 280 122 207 185 170 125 117 138 141 94 116 105 81 78 100 98 96 82 90 69 83 110 60 70 115 95
200 197 196 199 202 207 231 255 138 139 273 283 260 289 305 332 335 337 277 215 174 190 209 202 207 186 180 212 150 200 186 169 148 119 8 357 156 183 166 135 122 123 137 109 99 82 101 116 125 134 204 161 93 307 133 304 133 139 158 160 120 286 114 207 219 233 143 149 163 133 137 160 94 83 59 97 184 123 81 68 27 337 83 95 177 264 47
200 198 194 198 204 208 227 233 147 154 239 292 304 277 42 287 220 257 279 246 128 229 161 238 215 209 188 201 160 192 174 159 147 105 62 43 24 11 142 146 141 120 113 103 96 88 87 86 85 87 87 89 87 68 71 35 340 178 127 94 244 176 161 192 200 237 121 126 181 163 176 191 153 80 50 70 79 92 99 82 56 39 329 338 21 55 31
199 198 194 196 202 211 214 217 149 169 222 292 299 284 331 323 294 216 233 257 188 223 213 200 219 127 141 174 156 193 170 172 185 181 134 159 90 64 153 156 155 123 110 99 91 94 92 95 97 102 99 99 102 104 114 98 67 13 357 152 140 213 224 193 164 257 120 151 170 189 213 207 88 52 9 324 56 134 99 73 67 55 39 61 53 63 52
200 199 196 194 202 210 208 199 162 178 232 273 302 295 319 317 280 259 230 236 213 187 230 212 215 158 207 173 193 176 178 184 176 238 151 119 114 109 148 150 137 121 114 128 119 109 108 104 102 99 98 97 92 91 84 73 67 53 348 317 144 177 200 147 169 245 155 138 199 223 242 111 67 65 87 29 59 86 100 99 85 85 90 94 80 67 48
202 200 197 194 201 210 205 195 177 178 211 242 257 275 1 347 308 286 258 243 228 197 210 211 199 205 186 170 186 187 182 137 101 98 130 138 138 152 82 81 112 115 150 144 141 139 120 109 103 105 108 114 112 101 77 64 61 64 45 338 267 173 184 139 192 269 70 213 195 231 104 98 103 96 87 49 78 101 104 92 85 68 48 31 56 36 35
203 200 198 195 199 207 207 197 184 181 192 227 250 267 294 312 292 239 241 239 241 212 261 231 187 203 195 190 172 133 133 124 113 127 119 126 140 131 111 59 99 137 149 146 146 130 119 130 120 144 140 158 154 142 89 83 54 49 58 87 287 278 186 203 164 56 250 283 32 70 123 138 154 162 156 257 205 201 267 106 111 66 29 23 25 22 17
204 200 199 198 197 204 205 197 189 184 179 204 254 260 264 251 261 301 316 267 261 250 208 227 202 195 192 178 168 160 167 147 146 108 100 108 101 58 71 108 135 147 151 163 145 167 132 134 139 156 160 185 181 134 175 153 102 56 54 71 144 277 279 122 245 172 258 252 167 149 175 222 169 95 118 76 271 284 259 150 120 69 53 25 21 25 23
203 198 198 201 200 202 204 195 188 186 176 191 233 255 267 262 280 273 273 267 266 242 204 283 3 237 187 181 183 177 165 172 150 133 137 132 110 110 98 116 122 149 168 196 144 135 151 167 159 174 168 176 111 153 164 154 154 119 108 107 109 120 236 242 258 147 204 227 262 234 233 60 99 114 44 39 278 247 195 248 157 36 26 40 19 28 25
204 199 199 200 202 201 201 194 187 184 174 181 226 240 263 179 220 248 249 229 231 271 52 8 332 292 208 162 177 203 185 174 157 155 154 151 146 127 121 124 121 202 206 165 165 157 159 167 188 177 84 70 170 138 145 209 147 145 145 173 153 171 137 212 212 207 218 238 240 270 51 114 104 76 42 6 28 196 233 265 134 38 49 38 34 36 27
207 199 196 199 202 203 199 194 184 183 177 194 231 245 249 156 233 249 243 247 236 249 83 73 236 212 204 187 192 136 129 143 155 142 148 140 142 153 143 158 161 192 272 194 175 164 160 175 179 187 135 66 358 269 193 120 147 131 106 37 93 78 303 281 304 278 106 276 256 84 137 103 72 53 29 39 243 244 243 278 79 70 61 52 43 46 34
209 200 197 199 200 201 200 193 186 182 183 183 211 256 256 227 208 229 262 251 239 248 81 42 327 296 329 297 315 148 185 174 160 142 129 151 163 154 157 117 273 163 211 177 191 169 168 141 338 224 155 144 240 162 120 170 143 96 126 188 170 196 261 223 274 261 272 222 262 16 74 68 9 51 41 84 191 227 1 89 178 61 73 68 43 46 37
210 203 198 199 200 201 199 194 187 183 176 181 202 231 56 134 203 218 226 239 254 275 302 4 301 266 298 293 219 186 177 199 192 167 161 158 130 145 145 158 199 157 168 184 163 356 196 168 153 214 185 155 158 41 193 116 353 176 157 15 306 89 236 198 186 68 270 233 268 256 236 97 341 44 180 165 274 80 101 111 91 62 72 66 64 44 47
211 205 200 199 200 200 199 194 189 182 175 178 203 234 248 179 201 224 246 268 277 280 179 80 323 282 305 280 313 320 304 237 194 191 176 145 154 173 179 192 167 177 168 184 178 168 204 155 170 155 34 199 122 218 182 143 180 124 319 185 277 61 262 238 132 21 301 211 223 300 58 74 21 302 120 69 53 57 61 132 106 81 60 69 76 62 45
212 207 201 198 200 201 200 195 190 183 176 177 194 225 250 163 157 213 229 239 250 262 326 341 319 300 309 315 328 329 302 303 326 329 147 123 168 220 24 153 167 183 144 165 102 109 197 126 124 152 169 133 168 213 146 199 174 128 124 239 199 128 325 359 0 78 306 13 68 96 85 73 59 66 85 82 79 74 62 66 63 74 73 45 68 56 48
213 207 201 199 199 200 199 196 190 183 177 175 187 213 224 177 162 168 211 221 238 265 275 265 260 244 251 259 271 334 321 318 316 292 311 146 151 210 198 169 145 42 104 272 210 165 150 161 165 171 148 168 175 154 202 285 74 150 169 165 27 113 26 169 254 97 92 71 72 107 105 94 90 81 84 99 99 89 91 91 92 75 69 53 54 51 45
216 206 201 200 200 200 199 195 189 182 177 177 192 198 222 242 108 171 205 249 257 268 223 232 249 219 194 280 20 284 280 312 318 311 321 298 166 162 56 335 93 131 148 99 336 122 125 76 86 235 177 141 179 186 189 184 224 135 165 160 174 117 168 196 195 133 182 141 170 130 112 116 106 102 102 95 88 83 85 87 78 76 66 68 56 49 46
219 209 201 200 199 200 199 195 189 182 178 180 197 230 295 226 201 227 218 195 207 220 231 164 225 34 329 317 285 266 345 334 297 275 273 265 279 194 173 112 98 265 146 130 200 123 134 138 155 191 170 128 268 186 63 263 152 174 215 140 145 172 184 223 166 163 237 140 146 123 113 106 115 127 124 112 102 95 87 83 81 78 72 59 52 46 49
219 210 203 200 199 198 198 194 188 183 178 182 191 196 198 208 208 218 276 300 299 255 252 213 144 107 312 224 7 334 322 309 292 266 236 260 328 2 118 127 102 51 98 128 169 152 131 127 162 172 172 158 278 276 161 25 52 136 261 94 37 104 162 204 176 173 99 122 139 138 137 127 117 102 85 91 100 104 98 90 85 74 72 74 73 57 51
219 208 203 199 197 196 195 193 186 182 180 180 192 207 214 206 197 206 217 250 234 190 241 238 126 98 62 56 2 343 332 313 291 221 203 219 188 128 130 127 119 130 127 104 47 93 105 110 188 156 165 100 178 36 81 165 210 172 210 125 153 158 202 136 174 173 177 181 165 157 161 168 142 123 113 108 98 94 92 87 78 74 73 68 65 66 58
216 208 200 196 195 195 194 190 185 178 178 179 195 203 229 229 209 238 260 278 280 305 265 186 174 129 37 42 13 359 357 344 337 169 159 169 160 154 143 137 133 143 144 135 135 166 162 180 149 61 83 125 163 154 354 61 222 225 229 167 175 212 165 168 189 201 206 144 154 184 58 90 112 126 119 107 96 92 85 78 75 71 61 50 42 41 50
212 204 199 195 194 193 191 187 178 173 166 165 166 199 247 231 232 242 246 261 280 269 292 37 83 164 192 51 357 30 32 66 99 113 106 115 133 140 141 135 136 129 114 107 117 130 123 71 104 152 136 155 225 145 164 188 194 215 183 131 161 68 127 202 35 77 90 127 139 159 165 138 130 124 117 106 101 99 94 82 70 61 53 46 42 38 21
210 203 198 194 192 190 185 178 167 162 158 154 146 186 210 223 192 208 203 213 231 268 253 181 174 107 60 350 48 43 65 73 83 83 96 94 80 89 102 104 86 89 105 129 144 132 122 123 83 53 62 301 215 150 201 192 201 154 104 128 122 136 130 113 126 196 145 129 133 129 117 117 120 113 104 95 80 69 72 67 57 60 62 48 45 41 35
208 202 195 191 190 186 177 166 161 158 157 163 173 175 176 219 162 171 179 196 222 250 273 279 123 94 111 79 270 63 61 71 74 77 69 74 79 75 70 88 73 103 127 119 106 108 147 138 151 129 118 1 328 190 202 188 201 154 153 147 148 145 146 125 97 105 126 132 127 125 122 121 120 114 104 105 106 106 103 105 101 67 48 60 61 41 38
209 201 195 188 185 178 168 162 163 167 171 172 196 211 180 60 100 159 165 176 184 235 236 164 119 177 115 158 115 22 14 46 77 95 75 42 87 62 58 49 90 30 58 105 110 132 96 102 153 150 169 157 256 220 207 214 208 171 148 153 150 140 132 137 134 130 133 136 137 135 137 139 164 153 129 124 112 109 109 111 110 122 175 91 90 93 60
205 194 191 186 179 172 166 165 166 173 175 117 89 105 94 75 169 163 163 151 187 228 279 241 186 144 169 123 136 181 248 157 114 134 97 12 87 90 91 77 99 90 38 111 109 106 125 152 139 150 104 132 207 200 217 213 200 140 153 152 148 142 139 139 144 143 145 152 158 162 158 151 126 110 120 126 121 112 110 96 83 78 32 350 12 13 12
202 194 188 180 172 165 163 161 157 121 32 24 214 223 168 132 129 167 167 178 187 193 253 237 154 172 126 129 185 148 220 209 150 171 124 55 8 224 124 131 60 99 10 16 115 117 145 183 160 127 136 183 219 197 217 172 129 149 158 155 146 140 141 144 150 153 149 136 163 133 124 123 119 119 130 129 120 120 102 71 25 6 350 357 4 7 355
201 189 182 168 158 148 144 143 150 172 172 192 284 42 128 165 168 177 172 194 172 187 214 236 222 143 137 168 199 148 187 244 168 188 144 105 300 139 144 141 175 190 117 123 141 150 149 168 142 156 176 145 179 205 212 162 160 156 155 155 155 150 151 153 154 150 141 134 122 118 126 131 138 142 134 132 122 114 95 52 27 358 344 347 349 351 351
196 168 149 139 126 119 113 131 183 162 176 185 176 149 141 118 104 214 187 53 319 248 189 191 197 191 162 166 177 136 173 108 79 93 82 129 132 40 226 161 141 64 49 222 163 165 168 142 183 183 145 177 205 203 198 167 164 163 164 161 162 163 163 156 148 148 143 139 134 134 141 146 139 134 133 133 125 101 58 6 17 352 338 335 344 343 343
162 140 130 124 123 120 139 166 165 225 217 110 101 105 107 110 68 22 274 246 181 248 274 188 201 199 189 168 106 137 180 167 172 147 152 181 142 122 180 187 133 122 175 149 157 180 116 132 239 173 180 200 202 190 186 167 167 165 165 161 163 168 160 151 146 144 143 146 147 149 147 143 139 146 142 130 110 109 15 4 0 348 343 339 339 339 347
142 136 132 137 124 140 167 191 182 138 117 119 128 107 107 247 151 173 162 204 186 211 238 240 225 174 90 159 150 153 187 149 172 154 151 132 144 137 266 111 117 185 172 167 130 73 116 180 214 203 204 192 68 144 156 165 165 164 161 162 166 163 151 147 151 151 149 151 155 153 151 154 150 148 147 140 140 88 55 20 358 4 340 339 345 342 330
144 141 127 160 157 172 170 153 120 118 98 35 279 130 141 233 169 167 171 177 161 214 210 224 215 174 181 181 116 122 279 155 173 174 165 173 203 146 216 174 146 227 148 171 159 181 178 195 211 216 218 179 183 167 150 147 155 165 165 162 162 155 151 155 161 160 162 166 157 160 167 163 159 154 152 160 129 102 83 343 357 350 357 329 359 341 333
147 160 159 160 177 111 99 118 123 113 126 137 204 204 149 211 198 171 156 171 189 207 172 214 208 181 198 178 146 169 223 196 174 184 160 133 309 182 163 165 122 194 189 201 147 183 211 189 202 206 222 191 184 155 161 158 161 162 162 160 159 154 156 160 163 164 157 141 144 143 138 130 135 146 148 132 107 252 180 179 36 1 337 28 36 318 330
166 132 154 142 113 116 111 119 95 71 82 132 136 242 156 179 221 136 160 194 189 187 188 203 145 181 154 166 161 156 141 309 38 47 140 133 101 329 159 167 162 205 210 195 124 182 211 216 196 212 218 187 164 158 164 166 162 156 154 157 155 156 156 149 144 142 139 137 138 136 132 133 132 128 116 118 119 248 356 321 325 26 348 327 328 329 333
159 114 101 93 103 104 107 49 28 103 267 244 196 183 189 152 133 208 209 185 193 163 165 174 178 183 172 180 158 114 127 330 138 171 152 136 170 207 149 126 166 216 198 121 135 183 190 206 211 218 210 172 149 154 162 164 158 155 153 152 151 153 153 151 151 150 150 145 142 137 136 137 127 131 133 163 170 171 217 245 281 282 313 345 323 323 331
106 107 101 96 76 60 79 109 284 158 160 178 192 172 201 177 199 179 178 221 168 177 155 164 152 90 72 97 76 35 105 184 184 159 191 137 133 216 157 156 160 215 171 124 179 177 199 214 215 213 167 156 153 160 164 159 155 154 152 153 153 155 155 154 153 148 146 143 139 139 136 139 141 143 145 160 171 179 191 182 254 325 324 332 325 328 328
111 81 76 50 87 311 111 133 170 130 199 221 192 187 182 187 176 185 186 178 168 172 154 160 157 164 156 181 150 133 133 139 285 93 71 126 167 154 141 188 191 78 101 179 188 200 209 217 224 199 150 152 158 162 159 155 154 148 149 155 156 157 155 150 144 141 138 136 135 134 138 146 153 158 174 181 181 212 227 240 335 19 327 316 323 335 331
79 47 80 93 99 172 144 125 168 225 204 199 211 200 184 192 177 180 179 141 162 159 150 157 159 164 138 128 107 104 197 146 165 185 151 167 151 165 193 171 124 156 185 183 196 204 208 226 192 153 155 160 162 160 156 153 153 153 153 154 158 157 154 152 150 147 145 147 142 145 152 161 176 180 184 186 183 192 221 272 321 287 316 333 324 330 332
115 150 141 133 142 205 206 158 162 204 224 208 206 203 193 191 167 172 147 149 156 145 154 152 150 125 126 155 176 154 155 139 155 140 137 176 172 169 87 84 149 184 191 210 199 211 212 211 182 179 171 165 160 157 153 153 154 152 153 158 158 158 158 155 153 152 149 148 150 159 160 173 183 191 192 184 184 188 179 148 131 340 338 320 334 334 332
88 52 97 78 124 172 213 197 194 206 188 200 205 200 190 176 166 140 121 146 136 127 117 141 141 134 137 148 126 101 154 153 135 137 199 174 156 97 130 190 194 188 188 206 210 216 215 202 174 164 163 159 156 154 154 156 157 159 158 154 157 158 158 157 156 155 152 152 156 167 171 178 185 190 189 185 190 181 147 148 211 233 314 327 331 335 333
139 177 147 159 184 177 197 217 189 192 221 187 181 181 165 140 133 133 136 128 128 133 143 139 126 116 106 0 192 153 142 134 113 154 221 111 98 143 156 202 220 200 210 210 216 211 208 167 161 159 159 159 156 156 158 159 160 161 157 156 158 159 159 158 158 156 156 161 167 175 179 178 191 197 212 205 208 217 212 231 222 271 305 318 330 337 337
109 149 166 181 166 163 183 164 175 183 180 181 175 172 161 169 168 138 137 137 147 151 152 148 147 143 144 154 145 134 154 165 157 157 148 187 176 181 177 199 188 210 215 213 223 196 189 153 150 150 155 156 158 159 159 160 161 161 159 160 160 160 160 161 160 158 163 169 173 178 185 182 199 214 209 187 216 217 213 217 248 288 310 319 332 334 333
122 175 290 160 159 181 169 170 190 180 169 171 174 177 176 176 145 133 149 144 152 141 130 92 110 128 134 154 160 167 165 176 151 136 175 195 186 180 191 216 197 207 196 188 205 180 146 137 143 151 156 157 158 159 158 158 159 160 161 160 161 162 164 162 162 163 171 171 178 180 185 186 219 211 208 217 232 194 202 239 274 302 312 325 331 333 337
296 260 215 228 188 162 167 179 185 174 173 177 179 176 176 169 146 150 162 143 141 137 149 164 162 129 146 143 139 161 183 142 153 180 187 190 179 188 202 207 191 199 176 162 182 166 147 151 153 152 155 157 158 158 156 155 157 160 160 162 162 163 161 165 165 167 173 174 175 177 204 222 226 224 221 230 212 210 231 227 238 273 311 322 332 340 338
155 171 184 183 242 185 183 182 186 183 171 171 172 168 163 149 145 136 152 141 149 163 165 149 146 148 157 179 177 119 101 148 196 172 192 196 163 191 192 198 172 162 150 153 150 142 146 152 154 154 156 156 157 156 154 154 157 158 160 158 159 160 161 168 170 174 178 180 181 198 211 214 196 198 205 212 213 229 245 262 271 281 304 314 330 328 326